TimeEDT,TemperatureF,Dew PointF,Humidity,Sea Level PressureIn,VisibilityMPH,Wind Direction,Wind SpeedMPH,Gust SpeedMPH,PrecipitationIn,Events,Conditions,WindDirDegrees,DateUTC
12:53 AM,57.0,50.0,77,29.88,10.0,Calm,Calm,-,N/A,,Clear,0,2012-10-16 04:53:00
2:53 AM,57.0,46.0,67,29.90,10.0,NNE,3.5,-,N/A,,Clear,30,2012-10-16 06:53:00
3:53 AM,55.0,46.0,72,29.89,10.0,Calm,Calm,-,N/A,,Clear,0,2012-10-16 07:53:00
4:53 AM,53.1,45.0,74,29.91,10.0,Calm,Calm,-,N/A,,Clear,0,2012-10-16 08:53:00
6:53 AM,48.9,46.0,90,29.95,10.0,Calm,Calm,-,N/A,,Clear,0,2012-10-16 10:53:00
8:53 AM,57.0,45.0,64,29.98,10.0,NE,8.1,-,N/A,,Clear,40,2012-10-16 12:53:00
9:53 AM,61.0,45.0,56,29.99,10.0,NE,10.4,-,N/A,,Clear,40,2012-10-16 13:53:00
10:53 AM,64.0,41.0,43,29.99,10.0,ENE,12.7,17.3,N/A,,Clear,60,2012-10-16 14:53:00
11:53 AM,66.9,42.1,40,29.98,10.0,NE,9.2,-,N/A,,Clear,50,2012-10-16 15:53:00
12:53 PM,68.0,41.0,37,29.96,10.0,ENE,9.2,-,N/A,,Clear,60,2012-10-16 16:53:00
1:53 PM,69.1,41.0,36,29.94,10.0,East,6.9,-,N/A,,Clear,90,2012-10-16 17:53:00
2:53 PM,71.1,41.0,34,29.91,10.0,Variable,3.5,-,N/A,,Clear,0,2012-10-16 18:53:00
3:53 PM,72.0,42.1,34,29.89,10.0,Variable,4.6,-,N/A,,Clear,0,2012-10-16 19:53:00
4:53 PM,72.0,41.0,33,29.88,10.0,NNE,3.5,-,N/A,,Clear,20,2012-10-16 20:53:00
5:53 PM,66.0,46.9,50,29.89,10.0,Calm,Calm,-,N/A,,Clear,0,2012-10-16 21:53:00
6:53 PM,60.1,50.0,69,29.90,10.0,Calm,Calm,-,N/A,,Clear,0,2012-10-16 22:53:00
7:53 PM,57.0,48.9,74,29.90,10.0,Calm,Calm,-,N/A,,Clear,0,2012-10-16 23:53:00
8:53 PM,55.9,51.1,84,29.91,10.0,Calm,Calm,-,N/A,,Clear,0,2012-10-17 00:53:00
9:53 PM,55.0,51.1,86,29.92,10.0,Calm,Calm,-,N/A,,Clear,0,2012-10-17 01:53:00
10:53 PM,53.1,50.0,89,29.93,10.0,Calm,Calm,-,N/A,,Clear,0,2012-10-17 02:53:00
11:53 PM,53.1,48.9,86,29.93,10.0,Calm,Calm,-,N/A,,Clear,0,2012-10-17 03:53:00